JBU369 KBOS-KFLL

Flight info

Callsign JBU369
Flight time 3h 11m
Altitude 34000
Route SSOXS7 SSOXS Q167 RIFLE HEADI Q97 KALDA Q161 CHIEZ Y291 MAJIK CUUDA3
Aircraft A321/M-SDE3FGHIRWY/LB1

Departure

Time 2026-05-03 21:08
Airport Boston Logan International Airport (KBOS)

Arrival

Time 2026-05-04 00:19
Airport Fort Lauderdale Hollywood International Airport (KFLL)
Time Latitude Longitude Altitude Speed Heading
2026-05-03 20:19 42.36616 -71.01471 31 ft 0 kts 215°
2026-05-03 20:50 42.36635 -71.01453 29 ft 3 kts 215°
2026-05-03 20:50 42.36653 -71.01437 31 ft 4 kts 197°
2026-05-03 20:50 42.36676 -71.01436 27 ft 4 kts 141°
2026-05-03 20:50 42.36684 -71.01454 25 ft 2 kts 79°
2026-05-03 20:51 42.36688 -71.01421 26 ft 4 kts 79°
2026-05-03 20:51 42.36693 -71.01385 29 ft 4 kts 80°
2026-05-03 20:51 42.36696 -71.01366 25 ft 0 kts 80°
2026-05-03 20:56 42.36698 -71.01347 27 ft 3 kts 80°
2026-05-03 20:57 42.36702 -71.01311 27 ft 4 kts 81°
2026-05-03 20:57 42.36696 -71.01281 30 ft 3 kts 133°
2026-05-03 20:57 42.36672 -71.01266 28 ft 4 kts 171°
2026-05-03 20:57 42.36640 -71.01271 28 ft 5 kts 189°
2026-05-03 20:58 42.36603 -71.01284 27 ft 6 kts 199°
2026-05-03 20:58 42.36561 -71.01309 28 ft 7 kts 204°
2026-05-03 20:58 42.36515 -71.01337 27 ft 8 kts 205°
2026-05-03 20:58 42.36465 -71.01369 29 ft 8 kts 203°
2026-05-03 20:59 42.36407 -71.01398 29 ft 9 kts 198°
2026-05-03 20:59 42.36367 -71.01392 26 ft 5 kts 136°
2026-05-03 20:59 42.36349 -71.01347 25 ft 6 kts 117°
2026-05-03 20:59 42.36326 -71.01293 29 ft 7 kts 121°
2026-05-03 21:00 42.36298 -71.01234 29 ft 8 kts 123°
2026-05-03 21:00 42.36288 -71.01213 25 ft 8 kts 121°
2026-05-03 21:00 42.36242 -71.01090 28 ft 9 kts 113°
2026-05-03 21:00 42.36213 -71.01006 27 ft 10 kts 115°
2026-05-03 21:01 42.36182 -71.00916 27 ft 11 kts 114°
2026-05-03 21:01 42.36151 -71.00819 25 ft 12 kts 112°
2026-05-03 21:01 42.36120 -71.00719 26 ft 11 kts 110°
2026-05-03 21:01 42.36094 -71.00613 26 ft 13 kts 107°
2026-05-03 21:02 42.36065 -71.00495 28 ft 14 kts 109°
2026-05-03 21:02 42.36033 -71.00372 29 ft 14 kts 109°
2026-05-03 21:02 42.35998 -71.00243 28 ft 15 kts 109°
2026-05-03 21:02 42.35966 -71.00108 25 ft 15 kts 106°
2026-05-03 21:03 42.35952 -70.99999 25 ft 0 kts 87°
2026-05-03 21:05 42.35952 -70.99990 27 ft 4 kts 87°
2026-05-03 21:05 42.35964 -70.99911 25 ft 13 kts 75°
2026-05-03 21:05 42.35992 -70.99756 25 ft 19 kts 78°
2026-05-03 21:05 42.36025 -70.99568 27 ft 21 kts 76°
2026-05-03 21:06 42.36061 -70.99368 27 ft 23 kts 76°
2026-05-03 21:06 42.36100 -70.99156 25 ft 24 kts 77°
2026-05-03 21:06 42.36132 -70.98960 28 ft 20 kts 78°
2026-05-03 21:06 42.36099 -70.98841 25 ft 15 kts 153°
2026-05-03 21:07 42.36008 -70.98863 25 ft 13 kts 251°
2026-05-03 21:07 42.35973 -70.99049 25 ft 46 kts 252°
2026-05-03 21:07 42.35835 -70.99829 28 ft 121 kts 257°
2026-05-03 21:07 42.35595 -71.01187 172 ft 166 kts 257°
2026-05-03 21:08 42.35166 -71.02697 914 ft 181 kts 243°
2026-05-03 21:08 42.34311 -71.03984 1687 ft 186 kts 220°
2026-05-03 21:08 42.33237 -71.04990 2243 ft 190 kts 219°
2026-05-03 21:08 42.32119 -71.05978 2735 ft 195 kts 219°
2026-05-03 21:09 42.30960 -71.07013 3143 ft 203 kts 226°
2026-05-03 21:09 42.29941 -71.08436 3313 ft 222 kts 237°
2026-05-03 21:09 42.28911 -71.10145 3530 ft 246 kts 236°
2026-05-03 21:09 42.27519 -71.11630 3959 ft 271 kts 205°
2026-05-03 21:10 42.25603 -71.11871 4577 ft 289 kts 173°
2026-05-03 21:10 42.23664 -71.10981 5257 ft 296 kts 155°
2026-05-03 21:10 42.21870 -71.09618 5951 ft 301 kts 149°
2026-05-03 21:10 42.20091 -71.08076 6632 ft 305 kts 148°
2026-05-03 21:11 42.18301 -71.06528 7322 ft 308 kts 149°
2026-05-03 21:11 42.16458 -71.05012 8009 ft 310 kts 151°
2026-05-03 21:11 42.14629 -71.03456 8657 ft 314 kts 144°
2026-05-03 21:11 42.12845 -71.01711 9312 ft 318 kts 145°
2026-05-03 21:12 42.11034 -71.00000 9975 ft 320 kts 147°
2026-05-03 21:12 42.09176 -70.98273 10359 ft 335 kts 147°
2026-05-03 21:12 42.07192 -70.96442 10495 ft 356 kts 147°
2026-05-03 21:12 42.05096 -70.94509 10618 ft 376 kts 147°
2026-05-03 21:13 42.02876 -70.92453 10748 ft 395 kts 147°
2026-05-03 21:13 42.00594 -70.90333 11041 ft 407 kts 147°
2026-05-03 21:13 41.98232 -70.88140 11602 ft 411 kts 147°
2026-05-03 21:13 41.95897 -70.85966 12229 ft 416 kts 147°
2026-05-03 21:14 41.93491 -70.83724 12929 ft 418 kts 147°
2026-05-03 21:14 41.91086 -70.81484 13542 ft 420 kts 148°
2026-05-03 21:14 41.88595 -70.79560 14053 ft 419 kts 159°
2026-05-03 21:14 41.85810 -70.78346 14561 ft 416 kts 172°
2026-05-03 21:15 41.82967 -70.77945 15076 ft 413 kts 184°
2026-05-03 21:15 41.81043 -70.78114 15423 ft 411 kts 193°
2026-05-03 21:15 41.78287 -70.79000 15952 ft 407 kts 204°
2026-05-03 21:15 41.74931 -70.81200 16635 ft 404 kts 214°
2026-05-03 21:16 41.73281 -70.82455 16986 ft 406 kts 214°
2026-05-03 21:16 41.70803 -70.84322 17479 ft 408 kts 214°
2026-05-03 21:16 41.68324 -70.86177 17959 ft 411 kts 214°
2026-05-03 21:16 41.65827 -70.88042 18415 ft 413 kts 214°
2026-05-03 21:17 41.63301 -70.89926 18871 ft 415 kts 214°
2026-05-03 21:17 41.60758 -70.91822 19314 ft 418 kts 214°
2026-05-03 21:17 41.58224 -70.93717 19748 ft 419 kts 215°
2026-05-03 21:17 41.55827 -70.95916 20178 ft 417 kts 224°
2026-05-03 21:18 41.53736 -70.98574 20588 ft 414 kts 232°
2026-05-03 21:18 41.51990 -71.01617 20991 ft 413 kts 240°
2026-05-03 21:18 41.50424 -71.04777 21384 ft 415 kts 240°
2026-05-03 21:18 41.48825 -71.07987 21771 ft 417 kts 239°
2026-05-03 21:19 41.47213 -71.11207 22153 ft 418 kts 239°
2026-05-03 21:19 41.45591 -71.14434 22517 ft 421 kts 239°
2026-05-03 21:19 41.43963 -71.17669 22874 ft 422 kts 239°
2026-05-03 21:19 41.42325 -71.20920 23224 ft 424 kts 239°
2026-05-03 21:20 41.40673 -71.24201 23569 ft 426 kts 239°
2026-05-03 21:20 41.39024 -71.27479 23899 ft 428 kts 239°
2026-05-03 21:20 41.37356 -71.30791 24223 ft 430 kts 239°
2026-05-03 21:20 41.35687 -71.34094 24538 ft 432 kts 239°
2026-05-03 21:21 41.34008 -71.37413 24845 ft 434 kts 239°
2026-05-03 21:21 41.32311 -71.40766 25173 ft 436 kts 239°
2026-05-03 21:21 41.30616 -71.44111 25483 ft 438 kts 239°
2026-05-03 21:21 41.28919 -71.47460 25860 ft 437 kts 239°
2026-05-03 21:22 41.27218 -71.50818 26276 ft 436 kts 239°
2026-05-03 21:22 41.25528 -71.54148 26672 ft 435 kts 239°
2026-05-03 21:22 41.23844 -71.57465 27068 ft 434 kts 239°
2026-05-03 21:22 41.22152 -71.60795 27441 ft 433 kts 239°
2026-05-03 21:23 41.20474 -71.64093 27862 ft 431 kts 239°
2026-05-03 21:23 41.18790 -71.67398 28248 ft 430 kts 239°
2026-05-03 21:23 41.17138 -71.70636 28610 ft 429 kts 239°
2026-05-03 21:23 41.15450 -71.73940 28989 ft 428 kts 239°
2026-05-03 21:24 41.13795 -71.77180 29342 ft 427 kts 239°
2026-05-03 21:24 41.12139 -71.80433 29678 ft 426 kts 239°
2026-05-03 21:24 41.10461 -71.83732 30049 ft 424 kts 239°
2026-05-03 21:24 41.08835 -71.86926 30392 ft 423 kts 239°
2026-05-03 21:25 41.07192 -71.90150 30710 ft 422 kts 239°
2026-05-03 21:25 41.05524 -71.93419 31076 ft 421 kts 239°
2026-05-03 21:25 41.03919 -71.96592 31377 ft 419 kts 241°
2026-05-03 21:25 41.02565 -71.99981 31681 ft 416 kts 247°
2026-05-03 21:26 41.01352 -72.03473 31968 ft 416 kts 248°
2026-05-03 21:26 41.00140 -72.06939 32233 ft 416 kts 247°
2026-05-03 21:26 40.98920 -72.10400 32506 ft 415 kts 247°
2026-05-03 21:26 40.97691 -72.13868 32793 ft 414 kts 247°
2026-05-03 21:27 40.96469 -72.17311 33056 ft 414 kts 246°
2026-05-03 21:27 40.95248 -72.20746 33313 ft 413 kts 246°
2026-05-03 21:27 40.94023 -72.24194 33599 ft 412 kts 246°
2026-05-03 21:27 40.92807 -72.27614 33828 ft 412 kts 246°
2026-05-03 21:28 40.89527 -72.33879 33894 ft 421 kts 229°
2026-05-03 21:28 40.85347 -72.39312 33898 ft 421 kts 228°
2026-05-03 21:29 40.81185 -72.44727 33909 ft 420 kts 229°
2026-05-03 21:29 40.76772 -72.49775 33910 ft 423 kts 224°
2026-05-03 21:30 40.72220 -72.54698 33920 ft 423 kts 224°
2026-05-03 21:30 40.67907 -72.59916 33923 ft 417 kts 234°
2026-05-03 21:31 40.64233 -72.65833 33929 ft 417 kts 234°
2026-05-03 21:31 40.60552 -72.71725 33930 ft 418 kts 234°
2026-05-03 21:32 40.56849 -72.77625 33935 ft 418 kts 234°
2026-05-03 21:32 40.53144 -72.83511 33936 ft 418 kts 234°
2026-05-03 21:33 40.49433 -72.89386 33935 ft 417 kts 234°
2026-05-03 21:33 40.45729 -72.95258 33934 ft 417 kts 234°
2026-05-03 21:34 40.42034 -73.01107 33932 ft 417 kts 234°
2026-05-03 21:34 40.38348 -73.06935 33930 ft 417 kts 234°
2026-05-03 21:35 40.34635 -73.12791 33929 ft 417 kts 234°
2026-05-03 21:35 40.30918 -73.18641 33929 ft 417 kts 234°
2026-05-03 21:36 40.27209 -73.24472 33933 ft 417 kts 234°
2026-05-03 21:36 40.23479 -73.30311 33936 ft 417 kts 234°
2026-05-03 21:37 40.19755 -73.36135 33936 ft 417 kts 234°
2026-05-03 21:37 40.16024 -73.41962 33948 ft 417 kts 234°
2026-05-03 21:38 40.12303 -73.47773 33950 ft 418 kts 234°
2026-05-03 21:38 40.08557 -73.53605 33956 ft 418 kts 234°
2026-05-03 21:39 40.04827 -73.59392 33963 ft 417 kts 234°
2026-05-03 21:39 40.01080 -73.65175 33964 ft 417 kts 234°
2026-05-03 21:40 39.97180 -73.70797 33965 ft 422 kts 226°
2026-05-03 21:40 39.92077 -73.74775 33971 ft 436 kts 208°
2026-05-03 21:41 39.86450 -73.77745 33968 ft 436 kts 209°
2026-05-03 21:41 39.80882 -73.80716 33973 ft 436 kts 209°
2026-05-03 21:42 39.75265 -73.83717 33970 ft 436 kts 209°
2026-05-03 21:42 39.69643 -73.86703 33981 ft 436 kts 209°
2026-05-03 21:43 39.64021 -73.89677 33989 ft 436 kts 209°
2026-05-03 21:43 39.58422 -73.92646 33990 ft 435 kts 209°
2026-05-03 21:44 39.52816 -73.95613 33990 ft 434 kts 209°
2026-05-03 21:44 39.47216 -73.98567 33996 ft 434 kts 209°
2026-05-03 21:45 39.41729 -74.01690 33996 ft 426 kts 217°
2026-05-03 21:45 39.37087 -74.06243 34002 ft 416 kts 226°
2026-05-03 21:46 39.32668 -74.11092 34005 ft 416 kts 226°
2026-05-03 21:46 39.28238 -74.15915 34006 ft 416 kts 226°
2026-05-03 21:47 39.23822 -74.20716 34008 ft 416 kts 226°
2026-05-03 21:47 39.19402 -74.25528 34023 ft 415 kts 226°
2026-05-03 21:48 39.14982 -74.30316 34019 ft 414 kts 226°
2026-05-03 21:48 39.10572 -74.35084 34030 ft 413 kts 226°
2026-05-03 21:49 39.06204 -74.39796 34031 ft 412 kts 226°
2026-05-03 21:49 39.01810 -74.44537 34027 ft 411 kts 227°
2026-05-03 21:50 38.97428 -74.49270 34049 ft 411 kts 227°
2026-05-03 21:50 38.93056 -74.53989 34051 ft 409 kts 227°
2026-05-03 21:51 38.88850 -74.58848 34052 ft 406 kts 229°
2026-05-03 21:51 38.84723 -74.63797 34052 ft 405 kts 230°
2026-05-03 21:52 38.80575 -74.68707 34051 ft 405 kts 229°
2026-05-03 21:52 38.76400 -74.73573 34052 ft 405 kts 229°
2026-05-03 21:53 38.72146 -74.78333 34051 ft 407 kts 226°
2026-05-03 21:53 38.67732 -74.82868 34050 ft 408 kts 226°
2026-05-03 21:54 38.63319 -74.87361 34051 ft 407 kts 226°
2026-05-03 21:54 38.58915 -74.91898 34054 ft 406 kts 226°
2026-05-03 21:55 38.54537 -74.96455 34057 ft 405 kts 226°
2026-05-03 21:55 38.50219 -75.01046 34055 ft 404 kts 228°
2026-05-03 21:56 38.45991 -75.05760 34058 ft 404 kts 227°
2026-05-03 21:56 38.41540 -75.10206 34059 ft 407 kts 224°
2026-05-03 21:57 38.36957 -75.14442 34060 ft 408 kts 224°
2026-05-03 21:57 38.32371 -75.18690 34060 ft 407 kts 224°
2026-05-03 21:58 38.27822 -75.22984 34060 ft 407 kts 225°
2026-05-03 21:58 38.23294 -75.27297 34060 ft 406 kts 225°
2026-05-03 21:59 38.18759 -75.31591 34063 ft 406 kts 225°
2026-05-03 21:59 38.14228 -75.35854 34066 ft 406 kts 225°
2026-05-03 22:00 38.09688 -75.40132 34067 ft 406 kts 225°
2026-05-03 22:00 38.05144 -75.44402 34070 ft 406 kts 225°
2026-05-03 22:01 38.00518 -75.48557 34074 ft 408 kts 223°
2026-05-03 22:01 37.95813 -75.52595 34087 ft 407 kts 223°
2026-05-03 22:02 37.91140 -75.56607 34090 ft 406 kts 223°
2026-05-03 22:02 37.86481 -75.60635 34091 ft 405 kts 223°
2026-05-03 22:03 37.81296 -75.63698 34089 ft 427 kts 206°
2026-05-03 22:03 37.76510 -75.65373 34087 ft 427 kts 206°
2026-05-03 22:04 37.69844 -75.67701 34089 ft 427 kts 206°
2026-05-03 22:04 37.65044 -75.69381 34087 ft 427 kts 206°
2026-05-03 22:05 37.59314 -75.71398 34092 ft 427 kts 206°
2026-05-03 22:05 37.53631 -75.73387 34096 ft 427 kts 206°
2026-05-03 22:06 37.47903 -75.75390 34099 ft 427 kts 206°
2026-05-03 22:06 37.42183 -75.77388 34096 ft 426 kts 206°
2026-05-03 22:07 37.36467 -75.79375 34102 ft 425 kts 206°
2026-05-03 22:07 37.30782 -75.81356 34104 ft 424 kts 206°
2026-05-03 22:08 37.25092 -75.83334 34106 ft 424 kts 206°
2026-05-03 22:08 37.19411 -75.85297 34107 ft 423 kts 206°
2026-05-03 22:09 37.13745 -75.87255 34105 ft 421 kts 206°
2026-05-03 22:10 37.05746 -75.91111 34105 ft 401 kts 219°
2026-05-03 22:10 37.00876 -75.94511 34101 ft 400 kts 219°
2026-05-03 22:11 36.96023 -75.97883 34100 ft 399 kts 219°
2026-05-03 22:11 36.91166 -76.01246 34102 ft 398 kts 219°
2026-05-03 22:12 36.86344 -76.04588 34098 ft 398 kts 219°
2026-05-03 22:12 36.81494 -76.07937 34099 ft 398 kts 218°
2026-05-03 22:13 36.76627 -76.11296 34100 ft 397 kts 219°
2026-05-03 22:13 36.71817 -76.14621 34104 ft 396 kts 219°
2026-05-03 22:14 36.67025 -76.17913 34107 ft 395 kts 219°
2026-05-03 22:14 36.62194 -76.21232 34107 ft 393 kts 219°
2026-05-03 22:15 36.57403 -76.24522 34110 ft 392 kts 218°
2026-05-03 22:15 36.52663 -76.27770 34114 ft 392 kts 219°
2026-05-03 22:16 36.47889 -76.31039 34116 ft 391 kts 219°
2026-05-03 22:16 36.43123 -76.34302 34116 ft 391 kts 219°
2026-05-03 22:17 36.38374 -76.37547 34114 ft 390 kts 219°
2026-05-03 22:17 36.33603 -76.40796 34113 ft 389 kts 219°
2026-05-03 22:18 36.28865 -76.44013 34111 ft 389 kts 219°
2026-05-03 22:18 36.24119 -76.47236 34113 ft 389 kts 219°
2026-05-03 22:19 36.19373 -76.50459 34115 ft 389 kts 219°
2026-05-03 22:19 36.14650 -76.53660 34117 ft 389 kts 219°
2026-05-03 22:20 36.09866 -76.56891 34121 ft 389 kts 218°
2026-05-03 22:20 36.05152 -76.60078 34123 ft 389 kts 218°
2026-05-03 22:21 36.00398 -76.63295 34123 ft 389 kts 219°
2026-05-03 22:21 35.95642 -76.66499 34130 ft 389 kts 218°
2026-05-03 22:22 35.90897 -76.69684 34132 ft 387 kts 218°
2026-05-03 22:22 35.86092 -76.72747 34132 ft 389 kts 216°
2026-05-03 22:23 35.81229 -76.75665 34131 ft 389 kts 216°
2026-05-03 22:23 35.76362 -76.78588 34129 ft 388 kts 217°
2026-05-03 22:24 35.71516 -76.81537 34119 ft 388 kts 217°
2026-05-03 22:24 35.66674 -76.84490 34116 ft 388 kts 217°
2026-05-03 22:25 35.61820 -76.87440 34114 ft 389 kts 217°
2026-05-03 22:25 35.56987 -76.90375 34114 ft 389 kts 217°
2026-05-03 22:26 35.52148 -76.93333 34116 ft 389 kts 217°
2026-05-03 22:26 35.47297 -76.96311 34117 ft 390 kts 217°
2026-05-03 22:27 35.42430 -76.99295 34118 ft 390 kts 217°
2026-05-03 22:27 35.37619 -77.02238 34119 ft 389 kts 217°
2026-05-03 22:28 35.32768 -77.05205 34118 ft 389 kts 217°
2026-05-03 22:28 35.27913 -77.08167 34116 ft 390 kts 217°
2026-05-03 22:29 35.23065 -77.11115 34117 ft 390 kts 217°
2026-05-03 22:29 35.18200 -77.14075 34118 ft 390 kts 216°
2026-05-03 22:30 35.13336 -77.17029 34120 ft 390 kts 216°
2026-05-03 22:30 35.08472 -77.19973 34121 ft 390 kts 216°
2026-05-03 22:31 35.03612 -77.22916 34121 ft 390 kts 216°
2026-05-03 22:31 34.98754 -77.25858 34120 ft 390 kts 216°
2026-05-03 22:32 34.93906 -77.28788 34120 ft 390 kts 216°
2026-05-03 22:32 34.89044 -77.31727 34120 ft 390 kts 216°
2026-05-03 22:33 34.84179 -77.34663 34123 ft 390 kts 216°
2026-05-03 22:33 34.79308 -77.37589 34123 ft 390 kts 216°
2026-05-03 22:34 34.74453 -77.40506 34123 ft 390 kts 216°
2026-05-03 22:34 34.69581 -77.43426 34122 ft 390 kts 216°
2026-05-03 22:35 34.64710 -77.46348 34120 ft 390 kts 216°
2026-05-03 22:35 34.59837 -77.49262 34119 ft 390 kts 216°
2026-05-03 22:36 34.54975 -77.52164 34119 ft 390 kts 216°
2026-05-03 22:36 34.49852 -77.54507 34119 ft 409 kts 202°
2026-05-03 22:37 34.44225 -77.55743 34119 ft 411 kts 202°
2026-05-03 22:37 34.38610 -77.56966 34119 ft 411 kts 202°
2026-05-03 22:38 34.32984 -77.58200 34118 ft 410 kts 202°
2026-05-03 22:38 34.27364 -77.59445 34120 ft 410 kts 202°
2026-05-03 22:39 34.21744 -77.60690 34122 ft 410 kts 202°
2026-05-03 22:39 34.16135 -77.61927 34124 ft 411 kts 202°
2026-05-03 22:40 34.10510 -77.63160 34124 ft 410 kts 202°
2026-05-03 22:40 34.04882 -77.64388 34124 ft 411 kts 202°
2026-05-03 22:41 33.99248 -77.65623 34125 ft 411 kts 202°
2026-05-03 22:41 33.93660 -77.66846 34125 ft 412 kts 202°
2026-05-03 22:42 33.88016 -77.68074 34126 ft 412 kts 202°
2026-05-03 22:42 33.82373 -77.69306 34128 ft 412 kts 202°
2026-05-03 22:43 33.76730 -77.70539 34129 ft 412 kts 202°
2026-05-03 22:43 33.71093 -77.71766 34132 ft 411 kts 202°
2026-05-03 22:44 33.65579 -77.73264 34130 ft 404 kts 206°
2026-05-03 22:44 33.60132 -77.75046 34130 ft 404 kts 206°
2026-05-03 22:45 33.54744 -77.76818 34130 ft 403 kts 206°
2026-05-03 22:45 33.49328 -77.78589 34130 ft 403 kts 206°
2026-05-03 22:46 33.43911 -77.80358 34127 ft 403 kts 206°
2026-05-03 22:46 33.38497 -77.82124 34128 ft 403 kts 206°
2026-05-03 22:47 33.33086 -77.83885 34130 ft 402 kts 206°
2026-05-03 22:47 33.27685 -77.85639 34128 ft 402 kts 206°
2026-05-03 22:48 33.22294 -77.87394 34125 ft 401 kts 206°
2026-05-03 22:48 33.16904 -77.89146 34123 ft 401 kts 206°
2026-05-03 22:49 33.11514 -77.90887 34128 ft 402 kts 206°
2026-05-03 22:49 33.06115 -77.92629 34129 ft 401 kts 206°
2026-05-03 22:50 33.00738 -77.94389 34128 ft 401 kts 206°
2026-05-03 22:50 32.95403 -77.96229 34129 ft 400 kts 207°
2026-05-03 22:51 32.90090 -77.98078 34130 ft 400 kts 207°
2026-05-03 22:51 32.84743 -77.99913 34130 ft 399 kts 206°
2026-05-03 22:52 32.79412 -78.01732 34128 ft 400 kts 206°
2026-05-03 22:52 32.74054 -78.03550 34126 ft 400 kts 206°
2026-05-03 22:53 32.69594 -78.05067 34128 ft 400 kts 206°
2026-05-03 22:53 32.64233 -78.06896 34128 ft 401 kts 206°
2026-05-03 22:54 32.58870 -78.08714 34129 ft 400 kts 206°
2026-05-03 22:54 32.53523 -78.10524 34135 ft 400 kts 206°
2026-05-03 22:55 32.48157 -78.12335 34141 ft 401 kts 206°
2026-05-03 22:55 32.42792 -78.14152 34144 ft 401 kts 206°
2026-05-03 22:56 32.37428 -78.15970 34147 ft 401 kts 206°
2026-05-03 22:56 32.32079 -78.17776 34148 ft 401 kts 206°
2026-05-03 22:57 32.26698 -78.19579 34151 ft 400 kts 206°
2026-05-03 22:57 32.21354 -78.21376 34149 ft 400 kts 206°
2026-05-03 22:58 32.16028 -78.23172 34147 ft 400 kts 206°
2026-05-03 22:58 32.10672 -78.24976 34143 ft 400 kts 206°
2026-05-03 22:59 32.05329 -78.26760 34141 ft 400 kts 206°
2026-05-03 22:59 31.99972 -78.28549 34142 ft 400 kts 206°
2026-05-03 23:00 31.94619 -78.30340 34144 ft 400 kts 206°
2026-05-03 23:00 31.89269 -78.32139 34145 ft 399 kts 206°
2026-05-03 23:01 31.83918 -78.33931 34145 ft 400 kts 206°
2026-05-03 23:01 31.78562 -78.35710 34144 ft 400 kts 206°
2026-05-03 23:02 31.73223 -78.37480 34141 ft 399 kts 206°
2026-05-03 23:02 31.67872 -78.39256 34138 ft 399 kts 206°
2026-05-03 23:03 31.62552 -78.41027 34137 ft 400 kts 206°
2026-05-03 23:03 31.57165 -78.42818 34136 ft 400 kts 206°
2026-05-03 23:04 31.51853 -78.44574 34135 ft 400 kts 206°
2026-05-03 23:04 31.46494 -78.46327 34134 ft 400 kts 205°
2026-05-03 23:05 31.41133 -78.48062 34134 ft 399 kts 205°
2026-05-03 23:05 31.35770 -78.49794 34134 ft 399 kts 205°
2026-05-03 23:06 31.30407 -78.51535 34134 ft 400 kts 206°
2026-05-03 23:06 31.25036 -78.53270 34138 ft 400 kts 205°
2026-05-03 23:07 31.19662 -78.55000 34142 ft 400 kts 205°
2026-05-03 23:07 31.14304 -78.56725 34143 ft 400 kts 205°
2026-05-03 23:08 31.08933 -78.58460 34144 ft 400 kts 205°
2026-05-03 23:08 31.03561 -78.60187 34148 ft 400 kts 205°
2026-05-03 23:09 30.98205 -78.61903 34144 ft 400 kts 205°
2026-05-03 23:09 30.92818 -78.63636 34145 ft 400 kts 206°
2026-05-03 23:10 30.87449 -78.65366 34147 ft 400 kts 206°
2026-05-03 23:10 30.82095 -78.67084 34150 ft 400 kts 205°
2026-05-03 23:11 30.76724 -78.68802 34144 ft 400 kts 205°
2026-05-03 23:11 30.71356 -78.70520 34141 ft 400 kts 205°
2026-05-03 23:12 30.66037 -78.72218 34135 ft 399 kts 206°
2026-05-03 23:12 30.60679 -78.73927 34132 ft 399 kts 206°
2026-05-03 23:13 30.55319 -78.75624 34129 ft 399 kts 206°
2026-05-03 23:13 30.49931 -78.77341 34129 ft 399 kts 206°
2026-05-03 23:14 30.44588 -78.79040 34128 ft 399 kts 205°
2026-05-03 23:14 30.39257 -78.80732 34122 ft 399 kts 205°
2026-05-03 23:15 30.33887 -78.82435 34121 ft 400 kts 205°
2026-05-03 23:15 30.28486 -78.84154 34121 ft 400 kts 205°
2026-05-03 23:16 30.23156 -78.85834 34120 ft 400 kts 205°
2026-05-03 23:16 30.17776 -78.87527 34120 ft 400 kts 205°
2026-05-03 23:17 30.12400 -78.89233 34120 ft 400 kts 205°
2026-05-03 23:17 30.07034 -78.90925 34122 ft 401 kts 205°
2026-05-03 23:18 30.01650 -78.92626 34119 ft 401 kts 205°
2026-05-03 23:18 29.96264 -78.94323 34114 ft 401 kts 205°
2026-05-03 23:19 29.90876 -78.96023 34111 ft 401 kts 205°
2026-05-03 23:19 29.85464 -78.97682 34106 ft 407 kts 201°
2026-05-03 23:19 29.82605 -78.98004 34106 ft 423 kts 190°
2026-05-03 23:20 29.79604 -78.97628 34105 ft 441 kts 179°
2026-05-03 23:20 29.76625 -78.96496 34104 ft 462 kts 166°
2026-05-03 23:20 29.73765 -78.94723 34103 ft 471 kts 162°
2026-05-03 23:21 29.68102 -78.91035 34104 ft 472 kts 162°
2026-05-03 23:21 29.62293 -78.87761 34100 ft 449 kts 176°
2026-05-03 23:21 29.59298 -78.87103 34103 ft 435 kts 184°
2026-05-03 23:22 29.53295 -78.86163 34101 ft 435 kts 184°
2026-05-03 23:22 29.47294 -78.85256 34102 ft 434 kts 184°
2026-05-03 23:23 29.41295 -78.84358 34102 ft 434 kts 184°
2026-05-03 23:23 29.35314 -78.83454 34100 ft 434 kts 184°
2026-05-03 23:24 29.29317 -78.82548 34098 ft 434 kts 184°
2026-05-03 23:24 29.23317 -78.81646 34091 ft 435 kts 184°
2026-05-03 23:25 29.17314 -78.80739 34089 ft 435 kts 184°
2026-05-03 23:25 29.11315 -78.79832 34091 ft 434 kts 184°
2026-05-03 23:26 29.05336 -78.78929 34091 ft 434 kts 184°
2026-05-03 23:26 28.99372 -78.78036 34086 ft 434 kts 184°
2026-05-03 23:27 28.93379 -78.77136 34087 ft 434 kts 183°
2026-05-03 23:27 28.87382 -78.76244 34088 ft 434 kts 184°
2026-05-03 23:28 28.81411 -78.75350 34087 ft 434 kts 183°
2026-05-03 23:28 28.75414 -78.74447 34082 ft 434 kts 183°
2026-05-03 23:29 28.69422 -78.73559 34086 ft 434 kts 183°
2026-05-03 23:29 28.63428 -78.72664 34082 ft 434 kts 183°
2026-05-03 23:30 28.57458 -78.71775 34079 ft 434 kts 183°
2026-05-03 23:30 28.51504 -78.70888 34071 ft 434 kts 182°
2026-05-03 23:31 28.45518 -78.69994 34068 ft 433 kts 182°
2026-05-03 23:31 28.39550 -78.69110 34064 ft 433 kts 182°
2026-05-03 23:32 28.33559 -78.68221 34059 ft 434 kts 182°
2026-05-03 23:32 28.27568 -78.67325 34058 ft 434 kts 182°
2026-05-03 23:33 28.21580 -78.66445 34057 ft 433 kts 182°
2026-05-03 23:33 28.15596 -78.65566 34053 ft 433 kts 182°
2026-05-03 23:34 28.09664 -78.64685 34052 ft 433 kts 182°
2026-05-03 23:34 28.03677 -78.63806 34048 ft 434 kts 182°
2026-05-03 23:35 27.97685 -78.62925 34049 ft 434 kts 181°
2026-05-03 23:35 27.91685 -78.62041 34047 ft 435 kts 181°
2026-05-03 23:36 27.85694 -78.61159 34046 ft 435 kts 181°
2026-05-03 23:36 27.79683 -78.60268 34048 ft 435 kts 182°
2026-05-03 23:37 27.73671 -78.59395 34051 ft 435 kts 182°
2026-05-03 23:37 27.67688 -78.58526 34051 ft 436 kts 181°
2026-05-03 23:38 27.61667 -78.57637 34054 ft 436 kts 181°
2026-05-03 23:38 27.55662 -78.56748 34054 ft 436 kts 181°
2026-05-03 23:39 27.49636 -78.55868 34059 ft 436 kts 181°
2026-05-03 23:39 27.43608 -78.54988 34059 ft 436 kts 181°
2026-05-03 23:40 27.38560 -78.54253 34059 ft 436 kts 181°
2026-05-03 23:40 27.31569 -78.53224 34059 ft 437 kts 181°
2026-05-03 23:41 27.26549 -78.52490 34058 ft 437 kts 181°
2026-05-03 23:41 27.20512 -78.51621 34055 ft 437 kts 181°
2026-05-03 23:42 27.14486 -78.50761 34051 ft 438 kts 181°
2026-05-03 23:42 27.08435 -78.49890 34050 ft 438 kts 181°
2026-05-03 23:43 27.02380 -78.49006 34050 ft 439 kts 181°
2026-05-03 23:43 26.96322 -78.48127 34048 ft 439 kts 181°
2026-05-03 23:44 26.90261 -78.47251 33968 ft 439 kts 181°
2026-05-03 23:44 26.87221 -78.46813 33707 ft 439 kts 181°
2026-05-03 23:44 26.84232 -78.46382 33464 ft 439 kts 181°
2026-05-03 23:45 26.81145 -78.45936 33208 ft 440 kts 181°
2026-05-03 23:45 26.78138 -78.45503 32961 ft 441 kts 181°
2026-05-03 23:45 26.75090 -78.45064 32699 ft 442 kts 181°
2026-05-03 23:45 26.72029 -78.44625 32461 ft 442 kts 180°
2026-05-03 23:46 26.68996 -78.44206 32220 ft 441 kts 183°
2026-05-03 23:46 26.65969 -78.44316 31955 ft 427 kts 197°
2026-05-03 23:46 26.63175 -78.45241 31709 ft 417 kts 210°
2026-05-03 23:46 26.60730 -78.46893 31462 ft 410 kts 222°
2026-05-03 23:47 26.58738 -78.49167 31208 ft 407 kts 234°
2026-05-03 23:47 26.57308 -78.51881 30961 ft 408 kts 246°
2026-05-03 23:47 26.56488 -78.54912 30711 ft 412 kts 258°
2026-05-03 23:47 26.56242 -78.58125 30460 ft 416 kts 264°
2026-05-03 23:48 26.56083 -78.61347 30211 ft 417 kts 263°
2026-05-03 23:48 26.55924 -78.64599 29957 ft 418 kts 263°
2026-05-03 23:48 26.55764 -78.67840 29707 ft 419 kts 263°
2026-05-03 23:48 26.55598 -78.71086 29452 ft 420 kts 263°
2026-05-03 23:49 26.55427 -78.74356 29206 ft 420 kts 263°
2026-05-03 23:49 26.55254 -78.77612 28957 ft 421 kts 264°
2026-05-03 23:49 26.55082 -78.80882 28707 ft 422 kts 264°
2026-05-03 23:49 26.54909 -78.84169 28455 ft 423 kts 264°
2026-05-03 23:50 26.54735 -78.87445 28205 ft 424 kts 264°
2026-05-03 23:50 26.54559 -78.90728 27958 ft 425 kts 264°
2026-05-03 23:50 26.54383 -78.94036 27706 ft 426 kts 264°
2026-05-03 23:50 26.54206 -78.97329 27450 ft 426 kts 264°
2026-05-03 23:51 26.54027 -79.00648 26610 ft 427 kts 264°
2026-05-03 23:51 26.53930 -79.03909 25471 ft 414 kts 267°
2026-05-03 23:51 26.53956 -79.07075 24405 ft 409 kts 269°
2026-05-03 23:51 26.54052 -79.10284 23312 ft 415 kts 270°
2026-05-03 23:52 26.54174 -79.13466 22429 ft 415 kts 270°
2026-05-03 23:52 26.54297 -79.16711 21620 ft 413 kts 270°
2026-05-03 23:52 26.54400 -79.19884 20782 ft 411 kts 270°
2026-05-03 23:52 26.54484 -79.23094 19973 ft 408 kts 270°
2026-05-03 23:53 26.54552 -79.26245 19170 ft 405 kts 269°
2026-05-03 23:53 26.54609 -79.29354 18384 ft 402 kts 269°
2026-05-03 23:53 26.54663 -79.32490 17595 ft 399 kts 269°
2026-05-03 23:53 26.54716 -79.35551 16793 ft 397 kts 270°
2026-05-03 23:54 26.54770 -79.38617 16001 ft 395 kts 270°
2026-05-03 23:54 26.54827 -79.41717 15237 ft 392 kts 270°
2026-05-03 23:54 26.54886 -79.44714 14519 ft 390 kts 270°
2026-05-03 23:54 26.54945 -79.47731 13808 ft 388 kts 270°
2026-05-03 23:55 26.55003 -79.50781 13140 ft 386 kts 270°
2026-05-03 23:55 26.55056 -79.53722 12493 ft 382 kts 270°
2026-05-03 23:55 26.55109 -79.56667 11854 ft 378 kts 270°
2026-05-03 23:55 26.54969 -79.59608 11316 ft 367 kts 259°
2026-05-03 23:56 26.54378 -79.62198 11006 ft 333 kts 250°
2026-05-03 23:56 26.53422 -79.64495 10817 ft 315 kts 240°
2026-05-03 23:56 26.52328 -79.66491 10649 ft 294 kts 239°
2026-05-03 23:56 26.51293 -79.68389 10277 ft 282 kts 239°
2026-05-03 23:57 26.50271 -79.70275 10028 ft 278 kts 239°
2026-05-03 23:57 26.49289 -79.72087 9855 ft 277 kts 239°
2026-05-03 23:57 26.48294 -79.73923 9731 ft 277 kts 239°
2026-05-03 23:57 26.47282 -79.75794 9598 ft 277 kts 239°
2026-05-03 23:58 26.46297 -79.77615 9481 ft 277 kts 239°
2026-05-03 23:58 26.45302 -79.79450 9353 ft 277 kts 239°
2026-05-03 23:58 26.44304 -79.81284 9226 ft 277 kts 239°
2026-05-03 23:58 26.43301 -79.83127 9106 ft 277 kts 239°
2026-05-03 23:59 26.42305 -79.84957 8984 ft 276 kts 239°
2026-05-03 23:59 26.41305 -79.86792 8992 ft 276 kts 239°
2026-05-03 23:59 26.40307 -79.88623 8998 ft 277 kts 239°
2026-05-03 23:59 26.39313 -79.90454 8998 ft 277 kts 239°
2026-05-04 00:00 26.38131 -79.92158 8996 ft 277 kts 224°
2026-05-04 00:00 26.36575 -79.93416 8997 ft 278 kts 211°
2026-05-04 00:00 26.34885 -79.94486 8998 ft 278 kts 211°
2026-05-04 00:00 26.33206 -79.95552 8997 ft 278 kts 211°
2026-05-04 00:01 26.31518 -79.96631 8996 ft 282 kts 212°
2026-05-04 00:01 26.29805 -79.97730 8998 ft 284 kts 212°
2026-05-04 00:01 26.28091 -79.98832 8990 ft 284 kts 212°
2026-05-04 00:01 26.26382 -79.99930 8989 ft 284 kts 212°
2026-05-04 00:02 26.24692 -80.01013 8978 ft 272 kts 212°
2026-05-04 00:02 26.23136 -80.02007 8978 ft 244 kts 212°
2026-05-04 00:02 26.21665 -80.02953 8708 ft 248 kts 212°
2026-05-04 00:02 26.20203 -80.03894 8560 ft 237 kts 212°
2026-05-04 00:03 26.18894 -80.04972 8220 ft 232 kts 226°
2026-05-04 00:03 26.17894 -80.06356 7833 ft 229 kts 239°
2026-05-04 00:03 26.17227 -80.07966 7453 ft 228 kts 252°
2026-05-04 00:03 26.16731 -80.09636 7068 ft 227 kts 252°
2026-05-04 00:04 26.16228 -80.11299 6986 ft 227 kts 251°
2026-05-04 00:04 26.15723 -80.12965 6990 ft 228 kts 251°
2026-05-04 00:04 26.15232 -80.14642 6990 ft 228 kts 255°
2026-05-04 00:04 26.15007 -80.16395 6991 ft 229 kts 268°
2026-05-04 00:05 26.15022 -80.18169 6987 ft 229 kts 270°
2026-05-04 00:05 26.15034 -80.19934 6986 ft 229 kts 269°
2026-05-04 00:05 26.15042 -80.21705 6987 ft 229 kts 269°
2026-05-04 00:05 26.15049 -80.23485 6987 ft 229 kts 269°
2026-05-04 00:06 26.15059 -80.25253 6988 ft 229 kts 270°
2026-05-04 00:06 26.15080 -80.27009 6983 ft 222 kts 270°
2026-05-04 00:06 26.15100 -80.28642 6979 ft 204 kts 270°
2026-05-04 00:06 26.15108 -80.30160 6984 ft 183 kts 269°
2026-05-04 00:07 26.15104 -80.31556 6657 ft 188 kts 269°
2026-05-04 00:07 26.15089 -80.33054 6136 ft 194 kts 268°
2026-05-04 00:07 26.15068 -80.34551 5622 ft 198 kts 269°
2026-05-04 00:07 26.15042 -80.36101 5087 ft 203 kts 268°
2026-05-04 00:08 26.15014 -80.37699 4529 ft 203 kts 269°
2026-05-04 00:08 26.14987 -80.39231 4079 ft 198 kts 269°
2026-05-04 00:08 26.14959 -80.40764 4006 ft 195 kts 269°
2026-05-04 00:08 26.14929 -80.42258 3996 ft 186 kts 269°
2026-05-04 00:09 26.14900 -80.43650 4012 ft 178 kts 269°
2026-05-04 00:09 26.14872 -80.45001 4035 ft 171 kts 269°
2026-05-04 00:09 26.14842 -80.46326 4026 ft 170 kts 269°
2026-05-04 00:09 26.14814 -80.47639 4025 ft 170 kts 269°
2026-05-04 00:10 26.14786 -80.48968 4026 ft 172 kts 269°
2026-05-04 00:10 26.14757 -80.50302 4026 ft 173 kts 269°
2026-05-04 00:10 26.14698 -80.51644 4024 ft 175 kts 262°
2026-05-04 00:10 26.14288 -80.52914 4025 ft 175 kts 238°
2026-05-04 00:11 26.13431 -80.53862 4024 ft 176 kts 211°
2026-05-04 00:11 26.12253 -80.54183 4029 ft 178 kts 180°
2026-05-04 00:11 26.11041 -80.53898 4028 ft 179 kts 156°
2026-05-04 00:11 26.10074 -80.53042 4028 ft 180 kts 132°
2026-05-04 00:12 26.09272 -80.51965 4024 ft 180 kts 128°
2026-05-04 00:12 26.08544 -80.50841 4026 ft 180 kts 124°
2026-05-04 00:12 26.07945 -80.49611 4022 ft 181 kts 107°
2026-05-04 00:12 26.07828 -80.48235 4020 ft 180 kts 90°
2026-05-04 00:13 26.07825 -80.46832 4027 ft 181 kts 90°
2026-05-04 00:13 26.07823 -80.45437 4025 ft 181 kts 90°
2026-05-04 00:13 26.07818 -80.44035 4025 ft 180 kts 90°
2026-05-04 00:13 26.07811 -80.42634 4026 ft 182 kts 89°
2026-05-04 00:14 26.07806 -80.41229 4024 ft 181 kts 90°
2026-05-04 00:14 26.07802 -80.39827 3980 ft 184 kts 90°
2026-05-04 00:14 26.07797 -80.38375 3798 ft 190 kts 90°
2026-05-04 00:14 26.07792 -80.36888 3555 ft 196 kts 90°
2026-05-04 00:15 26.07784 -80.35364 3306 ft 199 kts 90°
2026-05-04 00:15 26.07777 -80.33807 3040 ft 202 kts 90°
2026-05-04 00:15 26.07771 -80.32244 2771 ft 203 kts 90°
2026-05-04 00:15 26.07764 -80.30697 2504 ft 195 kts 89°
2026-05-04 00:16 26.07757 -80.29242 2254 ft 187 kts 89°
2026-05-04 00:16 26.07750 -80.27803 2023 ft 179 kts 89°
2026-05-04 00:16 26.07744 -80.26457 1780 ft 169 kts 89°
2026-05-04 00:16 26.07738 -80.25158 1556 ft 169 kts 88°
2026-05-04 00:17 26.07731 -80.23855 1333 ft 169 kts 88°
2026-05-04 00:17 26.07725 -80.22560 1104 ft 169 kts 89°
2026-05-04 00:17 26.07719 -80.21238 882 ft 170 kts 89°
2026-05-04 00:17 26.07712 -80.19918 659 ft 171 kts 89°
2026-05-04 00:18 26.07705 -80.18585 428 ft 173 kts 89°
2026-05-04 00:18 26.07689 -80.17287 243 ft 163 kts 90°
2026-05-04 00:18 26.07694 -80.16066 30 ft 150 kts 88°
2026-05-04 00:18 26.07688 -80.15088 16 ft 102 kts 90°
2026-05-04 00:19 26.07688 -80.14615 19 ft 24 kts 90°
2026-05-04 00:19 26.07651 -80.14449 20 ft 21 kts 119°
2026-05-04 00:19 26.07620 -80.14400 22 ft 0 kts 129°
2026-05-04 00:19 26.07620 -80.14399 19 ft 0 kts 129°
2026-05-04 00:20 26.07618 -80.14396 21 ft 1 kts 129°
2026-05-04 00:20 26.07614 -80.14391 20 ft 0 kts 129°
2026-05-04 00:22 26.07612 -80.14389 20 ft 1 kts 130°
2026-05-04 00:23 26.07610 -80.14387 20 ft 0 kts 136°
2026-05-04 00:24 26.07607 -80.14385 19 ft 1 kts 139°
2026-05-04 00:24 26.07602 -80.14381 20 ft 1 kts 154°
2026-05-04 00:24 26.07588 -80.14381 20 ft 3 kts 185°
2026-05-04 00:24 26.07573 -80.14394 19 ft 2 kts 239°
2026-05-04 00:25 26.07569 -80.14409 18 ft 4 kts 252°
2026-05-04 00:25 26.07559 -80.14459 19 ft 9 kts 261°
2026-05-04 00:25 26.07557 -80.14547 17 ft 14 kts 270°
2026-05-04 00:25 26.07560 -80.14670 17 ft 17 kts 272°
2026-05-04 00:26 26.07560 -80.14804 17 ft 14 kts 268°
2026-05-04 00:26 26.07501 -80.14881 16 ft 14 kts 222°
2026-05-04 00:26 26.07426 -80.14949 16 ft 14 kts 208°
2026-05-04 00:26 26.07387 -80.14921 16 ft 8 kts 110°
2026-05-04 00:27 26.07358 -80.14870 17 ft 8 kts 139°
2026-05-04 00:27 26.07302 -80.14848 16 ft 9 kts 172°
2026-05-04 00:27 26.07268 -80.14835 16 ft 0 kts 144°
2026-05-04 00:27 26.07263 -80.14831 16 ft 2 kts 141°
2026-05-04 00:28 26.07251 -80.14820 17 ft 3 kts 138°
2026-05-04 00:28 26.07237 -80.14787 16 ft 7 kts 111°
2026-05-04 00:28 26.07219 -80.14721 16 ft 9 kts 104°
2026-05-04 00:28 26.07196 -80.14654 16 ft 8 kts 139°
2026-05-04 00:29 26.07190 -80.14651 16 ft 1 kts 153°
2026-05-04 00:29 26.07177 -80.14649 16 ft 2 kts 172°
2026-05-04 00:29 26.07164 -80.14648 16 ft 1 kts 177°
2026-05-04 00:29 26.07156 -80.14648 16 ft 0 kts 178°
2026-05-04 00:30 26.07155 -80.14648 16 ft 0 kts 178°